| time (UTC) | temp F | wind direction | speed knots | gust knots | rain 1hr in | rain 24hr in | rain mn in | humidity % | barometer mb |
| 20260510104609 | 68 | 0 | 0.0 | 0.9 | 0.00 | 0.00 | 0.00 | 92 | 1015.4 |
| 20260510104051 | 68 | 0 | 0.0 | 1.7 | 0.00 | 0.00 | 0.00 | 92 | 1015.4 |
| 20260510103557 | 68 | 0 | 0.0 | 2.6 | 0.00 | 0.00 | 0.00 | 92 | 1015.3 |
| 20260510103051 | 68 | 196 | 0.0 | 3.5 | 0.00 | 0.00 | 0.00 | 92 | 1015.3 |
| 20260510102553 | 68 | 196 | 0.9 | 3.5 | 0.00 | 0.00 | 0.00 | 92 | 1015.2 |
| 20260510102050 | 68 | 196 | 0.9 | 3.5 | 0.00 | 0.00 | 0.00 | 92 | 1015.1 |
| 20260510101555 | 68 | 207 | 1.7 | 5.2 | 0.00 | 0.00 | 0.00 | 92 | 1015.0 |
| 20260510101054 | 68 | 239 | 0.9 | 5.2 | 0.00 | 0.00 | 0.00 | 92 | 1014.9 |
| 20260510100552 | 68 | 201 | 0.9 | 3.5 | 0.00 | 0.00 | 0.00 | 92 | 1014.8 |
| 20260510100058 | 68 | 0 | 0.0 | 3.5 | 0.00 | 0.00 | 0.00 | 92 | 1014.7 |
| 20260510095553 | 68 | 184 | 0.0 | 1.7 | 0.00 | 0.00 | 0.00 | 92 | 1014.4 |
| 20260510095049 | 68 | 0 | 0.0 | 3.5 | 0.00 | 0.00 | 0.00 | 92 | 1014.3 |
| 20260510094551 | 68 | 184 | 0.9 | 3.5 | 0.00 | 0.00 | 0.00 | 92 | 1014.3 |
| 20260510094050 | 68 | 197 | 0.0 | 1.7 | 0.00 | 0.00 | 0.00 | 92 | 1014.1 |
| 20260510093552 | 68 | 0 | 0.0 | 0.9 | 0.00 | 0.00 | 0.00 | 92 | 1013.9 |
| 20260510093052 | 68 | 0 | 0.0 | 1.7 | 0.00 | 0.00 | 0.00 | 92 | 1014.0 |
| 20260510092550 | 68 | 0 | 0.0 | 2.6 | 0.00 | 0.00 | 0.00 | 92 | 1013.9 |
| 20260510092054 | 68 | 0 | 0.0 | 2.6 | 0.00 | 0.00 | 0.00 | 92 | 1013.6 |
| 20260510091555 | 68 | 0 | 0.0 | 2.6 | 0.00 | 0.00 | 0.00 | 92 | 1013.5 |
| 20260510091050 | 68 | 0 | 0.0 | 0.0 | 0.00 | 0.00 | 0.00 | 92 | 1013.5 |
| 20260510090550 | 68 | 0 | 0.0 | 0.0 | 0.00 | 0.00 | 0.00 | 92 | 1013.5 |
| 20260510090053 | 68 | 0 | 0.0 | 0.0 | 0.00 | 0.00 | 0.00 | 92 | 1013.6 |
| 20260510085552 | 68 | 0 | 0.0 | 0.0 | 0.00 | 0.00 | 0.00 | 92 | 1013.5 |
| 20260510085050 | 68 | 0 | 0.0 | 0.0 | 0.00 | 0.00 | 0.00 | 92 | 1013.5 |
| 20260510084552 | 68 | 0 | 0.0 | 0.9 | 0.00 | 0.00 | 0.00 | 92 | 1013.6 |
| 20260510084050 | 68 | 0 | 0.0 | 2.6 | 0.00 | 0.00 | 0.00 | 92 | 1013.6 |
| 20260510083550 | 68 | 0 | 0.0 | 2.6 | 0.00 | 0.00 | 0.00 | 92 | 1013.5 |
| 20260510083054 | 68 | 0 | 0.0 | 0.0 | 0.00 | 0.00 | 0.00 | 92 | 1013.5 |
| 20260510082555 | 68 | 0 | 0.0 | 0.0 | 0.00 | 0.00 | 0.00 | 92 | 1013.6 |
| 20260510082049 | 68 | 0 | 0.0 | 0.0 | 0.00 | 0.00 | 0.00 | 91 | 1013.4 |
| 20260510081611 | 68 | 0 | 0.0 | 1.7 | 0.00 | 0.00 | 0.00 | 91 | 1013.4 |
| 20260510081052 | 68 | 0 | 0.0 | 2.6 | 0.00 | 0.00 | 0.00 | 91 | 1013.4 |
| 20260510080552 | 68 | 0 | 0.0 | 3.5 | 0.00 | 0.00 | 0.00 | 91 | 1013.3 |
| 20260510080057 | 68 | 197 | 0.9 | 3.5 | 0.00 | 0.00 | 0.00 | 91 | 1013.2 |
| 20260510075550 | 68 | 0 | 0.9 | 3.5 | 0.00 | 0.00 | 0.00 | 91 | 1013.2 |
| 20260510075050 | 68 | 206 | 0.9 | 2.6 | 0.00 | 0.00 | 0.00 | 91 | 1013.3 |
| 20260510074557 | 68 | 0 | 0.0 | 3.5 | 0.00 | 0.00 | 0.00 | 91 | 1013.2 |
| 20260510074050 | 68 | 200 | 0.9 | 3.5 | 0.00 | 0.00 | 0.00 | 91 | 1013.2 |
| 20260510073549 | 68 | 197 | 0.9 | 3.5 | 0.00 | 0.00 | 0.00 | 91 | 1013.2 |
| 20260510073052 | 68 | 222 | 0.0 | 3.5 | 0.00 | 0.00 | 0.00 | 91 | 1013.3 |
| 20260510072550 | 68 | 222 | 1.7 | 3.5 | 0.00 | 0.00 | 0.00 | 91 | 1013.2 |
| 20260510072052 | 68 | 213 | 0.0 | 2.6 | 0.00 | 0.00 | 0.00 | 91 | 1013.2 |
| 20260510071553 | 68 | 0 | 0.9 | 3.5 | 0.00 | 0.00 | 0.00 | 91 | 1013.2 |
| 20260510071051 | 68 | 0 | 0.9 | 3.5 | 0.00 | 0.00 | 0.00 | 91 | 1013.2 |
| 20260510070552 | 68 | 207 | 0.0 | 3.5 | 0.00 | 0.00 | 0.00 | 91 | 1013.3 |
| 20260510070056 | 68 | 0 | 0.9 | 3.5 | 0.00 | 0.00 | 0.00 | 91 | 1013.2 |
| 20260510065552 | 68 | 203 | 0.0 | 2.6 | 0.00 | 0.00 | 0.00 | 91 | 1013.2 |
| 20260510065051 | 68 | 0 | 0.0 | 2.6 | 0.00 | 0.00 | 0.00 | 91 | 1013.2 |
| 20260510064551 | 68 | 0 | 0.9 | 2.6 | 0.00 | 0.00 | 0.00 | 91 | 1013.1 |
| 20260510064050 | 68 | 184 | 0.9 | 2.6 | 0.00 | 0.00 | 0.00 | 91 | 1013.1 |
| 20260510063550 | 68 | 0 | 0.0 | 3.5 | 0.00 | 0.00 | 0.00 | 91 | 1013.0 |
| 20260510063054 | 69 | 0 | 0.9 | 4.3 | 0.00 | 0.00 | 0.00 | 91 | 1012.9 |
| 20260510062549 | 69 | 211 | 1.7 | 4.3 | 0.00 | 0.00 | 0.00 | 91 | 1012.9 |
| 20260510062050 | 68 | 212 | 0.9 | 3.5 | 0.00 | 0.00 | 0.00 | 91 | 1012.9 |
| 20260510061552 | 68 | 214 | 0.9 | 3.5 | 0.00 | 0.00 | 0.00 | 91 | 1012.9 |
| 20260510061052 | 68 | 190 | 0.9 | 3.5 | 0.00 | 0.00 | 0.00 | 91 | 1013.0 |
| 20260510060554 | 68 | 190 | 0.9 | 1.7 | 0.00 | 0.00 | 0.00 | 90 | 1013.0 |
| 20260510060101 | 68 | 0 | 0.0 | 0.9 | 0.00 | 0.00 | 0.00 | 90 | 1013.0 |
| 20260510055551 | 68 | 0 | 0.0 | 0.0 | 0.00 | 0.00 | 0.00 | 90 | 1013.1 |
| 20260510055052 | 68 | 0 | 0.0 | 0.0 | 0.00 | 0.00 | 0.00 | 90 | 1013.2 |
| 20260510054559 | 68 | 0 | 0.0 | 0.0 | 0.00 | 0.00 | 0.00 | 90 | 1013.2 |
| 20260510054051 | 68 | 0 | 0.0 | 0.0 | 0.00 | 0.00 | 0.00 | 90 | 1013.2 |
| 20260510053551 | 68 | 0 | 0.0 | 0.9 | 0.00 | 0.00 | 0.00 | 89 | 1013.2 |
| 20260510053057 | 68 | 0 | 0.0 | 0.9 | 0.00 | 0.00 | 0.00 | 89 | 1013.1 |
| 20260510052551 | 68 | 0 | 0.0 | 0.0 | 0.00 | 0.00 | 0.00 | 89 | 1013.0 |
| 20260510052051 | 68 | 0 | 0.0 | 0.0 | 0.00 | 0.00 | 0.00 | 89 | 1013.1 |
| 20260510051649 | 68 | 0 | 0.0 | 0.0 | 0.00 | 0.00 | 0.00 | 89 | 1013.1 |
| 20260510051053 | 69 | 0 | 0.0 | 0.0 | 0.00 | 0.00 | 0.00 | 89 | 1013.0 |
| 20260510050551 | 69 | 0 | 0.0 | 0.0 | 0.00 | 0.00 | 0.00 | 89 | 1013.0 |
| 20260510050059 | 69 | 0 | 0.0 | 0.0 | 0.00 | 0.00 | 0.00 | 89 | 1012.9 |
| 20260510045551 | 69 | 0 | 0.0 | 0.0 | 0.00 | 0.00 | 0.00 | 89 | 1013.0 |
| 20260510045050 | 69 | 0 | 0.0 | 0.0 | 0.00 | 0.00 | 0.00 | 89 | 1012.9 |
| 20260510044556 | 69 | 0 | 0.0 | 0.0 | 0.00 | 0.00 | 0.00 | 89 | 1012.9 |
| 20260510044050 | 70 | 0 | 0.0 | 0.0 | 0.00 | 0.00 | 0.00 | 89 | 1013.0 |
| 20260510043553 | 70 | 0 | 0.0 | 0.0 | 0.00 | 0.00 | 0.00 | 89 | 1013.0 |
| 20260510043142 | 70 | 0 | 0.0 | 0.0 | 0.00 | 0.00 | 0.00 | 89 | 1013.0 |
| 20260510042553 | 70 | 0 | 0.0 | 0.0 | 0.00 | 0.00 | 0.00 | 89 | 1013.0 |
| 20260510042054 | 71 | 0 | 0.0 | 0.0 | 0.00 | 0.00 | 0.00 | 89 | 1013.1 |
| 20260510041556 | 71 | 0 | 0.0 | 1.7 | 0.00 | 0.00 | 0.00 | 89 | 1013.1 |
| 20260510041055 | 71 | 0 | 0.0 | 1.7 | 0.00 | 0.00 | 0.00 | 89 | 1013.0 |
| 20260510040552 | 71 | 0 | 0.0 | 2.6 | 0.00 | 0.00 | 0.00 | 89 | 1013.2 |
| 20260510040100 | 71 | 169 | 0.0 | 2.6 | 0.00 | 0.00 | 0.00 | 89 | 1013.2 |
| 20260510035551 | 71 | 0 | 0.0 | 2.6 | 0.00 | 0.00 | 0.00 | 89 | 1013.2 |
| 20260510035053 | 71 | 190 | 0.0 | 2.6 | 0.00 | 0.00 | 0.00 | 89 | 1013.2 |
| 20260510034555 | 71 | 0 | 0.9 | 2.6 | 0.00 | 0.00 | 0.00 | 88 | 1013.3 |
| 20260510034051 | 71 | 222 | 0.0 | 1.7 | 0.00 | 0.00 | 0.00 | 88 | 1013.3 |
| 20260510033556 | 71 | 0 | 0.0 | 1.7 | 0.00 | 0.00 | 0.00 | 88 | 1013.3 |
| 20260510033057 | 71 | 0 | 0.0 | 0.0 | 0.00 | 0.00 | 0.00 | 88 | 1013.2 |
| 20260510032551 | 71 | 0 | 0.0 | 0.9 | 0.00 | 0.00 | 0.00 | 88 | 1013.3 |
| 20260510032054 | 71 | 0 | 0.0 | 0.9 | 0.00 | 0.00 | 0.00 | 87 | 1013.2 |
| 20260510031625 | 71 | 0 | 0.0 | 0.0 | 0.00 | 0.00 | 0.00 | 87 | 1013.2 |
| 20260510031050 | 71 | 0 | 0.0 | 0.0 | 0.00 | 0.00 | 0.00 | 87 | 1013.2 |
| 20260510030551 | 71 | 0 | 0.0 | 0.0 | 0.00 | 0.00 | 0.00 | 87 | 1013.1 |
| 20260510030053 | 71 | 0 | 0.0 | 0.0 | 0.00 | 0.00 | 0.00 | 87 | 1013.1 |
| 20260510025550 | 71 | 0 | 0.0 | 0.0 | 0.00 | 0.00 | 0.00 | 87 | 1013.2 |
| 20260510025052 | 71 | 0 | 0.0 | 0.0 | 0.00 | 0.00 | 0.00 | 87 | 1013.2 |
| 20260510024604 | 71 | 0 | 0.0 | 0.0 | 0.00 | 0.00 | 0.00 | 86 | 1013.0 |
| 20260510024052 | 71 | 0 | 0.0 | 0.0 | 0.00 | 0.00 | 0.00 | 86 | 1013.1 |
| 20260510023550 | 72 | 0 | 0.0 | 0.0 | 0.00 | 0.00 | 0.00 | 85 | 1013.1 |
| 20260510023102 | 72 | 0 | 0.0 | 0.0 | 0.00 | 0.00 | 0.00 | 85 | 1013.0 |
| 20260510022551 | 72 | 0 | 0.0 | 0.0 | 0.00 | 0.00 | 0.00 | 84 | 1013.0 |
| 20260510022051 | 72 | 0 | 0.0 | 0.0 | 0.00 | 0.00 | 0.00 | 83 | 1012.9 |
| 20260510021559 | 72 | 0 | 0.0 | 0.0 | 0.00 | 0.00 | 0.00 | 82 | 1012.9 |
| 20260510021052 | 72 | 0 | 0.0 | 0.0 | 0.00 | 0.00 | 0.00 | 82 | 1012.8 |
| 20260510020550 | 73 | 0 | 0.0 | 0.0 | 0.00 | 0.00 | 0.00 | 82 | 1012.7 |
| 20260510020051 | 73 | 0 | 0.0 | 0.0 | 0.00 | 0.00 | 0.00 | 82 | 1012.6 |
| 20260510015553 | 73 | 0 | 0.0 | 0.0 | 0.00 | 0.00 | 0.00 | 81 | 1012.6 |
| 20260510015052 | 73 | 0 | 0.0 | 0.0 | 0.00 | 0.00 | 0.00 | 81 | 1012.7 |
| 20260510014555 | 73 | 0 | 0.0 | 0.0 | 0.00 | 0.00 | 0.00 | 81 | 1012.6 |
| 20260510014052 | 74 | 0 | 0.0 | 0.0 | 0.00 | 0.00 | 0.00 | 81 | 1012.5 |
| 20260510013553 | 74 | 0 | 0.0 | 0.0 | 0.00 | 0.00 | 0.00 | 81 | 1012.4 |
| 20260510013056 | 74 | 0 | 0.0 | 1.7 | 0.00 | 0.00 | 0.00 | 80 | 1012.3 |
| 20260510012555 | 74 | 0 | 0.0 | 1.7 | 0.00 | 0.00 | 0.00 | 80 | 1012.2 |
| 20260510012055 | 74 | 0 | 0.0 | 2.6 | 0.00 | 0.00 | 0.00 | 79 | 1012.1 |
| 20260510011618 | 75 | 222 | 0.0 | 2.6 | 0.00 | 0.00 | 0.00 | 79 | 1012.0 |
| 20260510011051 | 75 | 0 | 0.0 | 0.0 | 0.00 | 0.00 | 0.00 | 78 | 1011.9 |
| 20260510010554 | 75 | 0 | 0.0 | 0.0 | 0.00 | 0.00 | 0.00 | 78 | 1011.9 |
| 20260510010106 | 75 | 0 | 0.0 | 0.0 | 0.00 | 0.00 | 0.00 | 78 | 1011.9 |
| 20260510005552 | 75 | 0 | 0.0 | 1.7 | 0.00 | 0.00 | 0.00 | 78 | 1011.8 |
| 20260510005051 | 76 | 0 | 0.0 | 2.6 | 0.00 | 0.00 | 0.00 | 77 | 1011.6 |
| 20260510004553 | 76 | 0 | 0.0 | 2.6 | 0.00 | 0.00 | 0.00 | 77 | 1011.6 |
| 20260510004051 | 76 | 159 | 0.0 | 2.6 | 0.00 | 0.00 | 0.00 | 76 | 1011.6 |
| 20260510003553 | 76 | 0 | 0.9 | 2.6 | 0.00 | 0.00 | 0.00 | 76 | 1011.5 |
| 20260510003051 | 76 | 145 | 0.0 | 5.2 | 0.00 | 0.00 | 0.00 | 76 | 1011.5 |
| 20260510002553 | 76 | 157 | 1.7 | 5.2 | 0.00 | 0.00 | 0.00 | 75 | 1011.5 |
| 20260510002049 | 76 | 0 | 0.0 | 4.3 | 0.00 | 0.00 | 0.00 | 75 | 1011.4 |
| 20260510001554 | 76 | 173 | 0.9 | 4.3 | 0.00 | 0.00 | 0.00 | 75 | 1011.4 |
| 20260510001052 | 76 | 0 | 0.9 | 2.6 | 0.00 | 0.00 | 0.00 | 74 | 1011.3 |
| 20260510000553 | 76 | 187 | 0.9 | 3.5 | 0.00 | 0.00 | 0.00 | 74 | 1011.2 |
| 20260510000052 | 76 | 0 | 0.0 | 3.5 | 0.00 | 0.00 | 0.00 | 74 | 1011.0 |
| 20260509235549 | 76 | 0 | 0.0 | 4.3 | 0.00 | 0.00 | 0.00 | 73 | 1011.0 |
| 20260509235053 | 76 | 0 | 1.7 | 4.3 | 0.00 | 0.00 | 0.00 | 74 | 1011.0 |
| 20260509234549 | 76 | 0 | 0.9 | 3.5 | 0.00 | 0.00 | 0.00 | 73 | 1011.0 |
| 20260509234053 | 76 | 187 | 0.0 | 1.7 | 0.00 | 0.00 | 0.00 | 72 | 1011.0 |
| 20260509233552 | 77 | 0 | 0.9 | 4.3 | 0.00 | 0.00 | 0.00 | 70 | 1011.0 |
| 20260509233057 | 77 | 222 | 0.9 | 4.3 | 0.00 | 0.00 | 0.00 | 70 | 1011.0 |
| 20260509232552 | 77 | 157 | 0.9 | 3.5 | 0.00 | 0.00 | 0.00 | 70 | 1010.9 |
| 20260509232052 | 77 | 0 | 0.9 | 5.2 | 0.00 | 0.00 | 0.00 | 71 | 1010.9 |
| 20260509231559 | 77 | 89 | 1.7 | 5.2 | 0.00 | 0.00 | 0.00 | 70 | 1010.8 |
| 20260509231052 | 78 | 182 | 0.9 | 5.2 | 0.00 | 0.00 | 0.00 | 70 | 1010.8 |
| 20260509230550 | 78 | 155 | 1.7 | 5.2 | 0.00 | 0.00 | 0.00 | 73 | 1010.7 |
| 20260509230054 | 78 | 0 | 0.9 | 6.1 | 0.00 | 0.00 | 0.00 | 71 | 1010.6 |
| 20260509225554 | 77 | 163 | 0.9 | 6.1 | 0.00 | 0.00 | 0.00 | 70 | 1010.8 |
| 20260509225056 | 78 | 123 | 0.9 | 3.5 | 0.00 | 0.00 | 0.00 | 70 | 1010.8 |
| 20260509224557 | 78 | 97 | 0.9 | 3.5 | 0.00 | 0.00 | 0.00 | 69 | 1010.7 |
| 20260509224051 | 78 | 0 | 0.9 | 3.5 | 0.00 | 0.00 | 0.00 | 70 | 1010.7 |
| 20260509223551 | 78 | 0 | 0.9 | 3.5 | 0.00 | 0.00 | 0.00 | 69 | 1010.7 |
| 20260509223051 | 78 | 84 | 0.9 | 3.5 | 0.00 | 0.00 | 0.00 | 71 | 1010.5 |
| 20260509222551 | 78 | 77 | 0.9 | 3.5 | 0.00 | 0.00 | 0.00 | 68 | 1010.6 |
| 20260509222051 | 78 | 108 | 0.9 | 4.3 | 0.00 | 0.00 | 0.00 | 70 | 1010.5 |
| 20260509221554 | 79 | 146 | 1.7 | 4.3 | 0.00 | 0.00 | 0.00 | 70 | 1010.6 |
| 20260509221051 | 79 | 193 | 0.9 | 5.2 | 0.00 | 0.00 | 0.00 | 68 | 1010.4 |
| 20260509220551 | 79 | 134 | 1.7 | 5.2 | 0.00 | 0.00 | 0.00 | 71 | 1010.3 |
| 20260509220053 | 78 | 0 | 1.7 | 7.0 | 0.00 | 0.00 | 0.00 | 70 | 1010.4 |
| 20260509215550 | 78 | 96 | 3.5 | 7.0 | 0.00 | 0.00 | 0.00 | 68 | 1010.4 |
| 20260509215057 | 79 | 213 | 1.7 | 6.1 | 0.00 | 0.00 | 0.00 | 69 | 1010.4 |
| 20260509214552 | 78 | 55 | 1.7 | 5.2 | 0.00 | 0.00 | 0.00 | 70 | 1010.3 |
| 20260509214051 | 78 | 109 | 1.7 | 5.2 | 0.00 | 0.00 | 0.00 | 70 | 1010.4 |
| 20260509213551 | 78 | 163 | 1.7 | 7.0 | 0.00 | 0.00 | 0.00 | 73 | 1010.4 |
| 20260509213106 | 77 | 0 | 0.9 | 7.0 | 0.00 | 0.00 | 0.00 | 73 | 1010.6 |
| 20260509212552 | 78 | 85 | 1.7 | 7.0 | 0.00 | 0.00 | 0.00 | 70 | 1010.5 |
| 20260509212051 | 78 | 40 | 0.9 | 5.2 | 0.00 | 0.00 | 0.00 | 72 | 1010.5 |
| 20260509211613 | 77 | 219 | 1.7 | 6.1 | 0.00 | 0.00 | 0.00 | 70 | 1010.7 |
| 20260509211051 | 78 | 76 | 1.7 | 7.0 | 0.00 | 0.00 | 0.00 | 71 | 1010.7 |
| 20260509210551 | 78 | 146 | 3.5 | 7.0 | 0.00 | 0.00 | 0.00 | 73 | 1010.7 |
| 20260509210058 | 78 | 172 | 1.7 | 5.2 | 0.00 | 0.00 | 0.00 | 71 | 1010.7 |
| 20260509205551 | 78 | 176 | 2.6 | 5.2 | 0.00 | 0.00 | 0.00 | 72 | 1010.7 |
| 20260509205052 | 78 | 160 | 1.7 | 5.2 | 0.00 | 0.00 | 0.00 | 72 | 1010.8 |
| 20260509204602 | 78 | 184 | 1.7 | 5.2 | 0.00 | 0.00 | 0.00 | 72 | 1010.8 |
| 20260509204053 | 79 | 73 | 1.7 | 5.2 | 0.00 | 0.00 | 0.00 | 71 | 1010.9 |
| 20260509203552 | 78 | 221 | 1.7 | 5.2 | 0.00 | 0.00 | 0.00 | 72 | 1010.8 |
| 20260509203058 | 77 | 64 | 0.9 | 6.1 | 0.00 | 0.00 | 0.00 | 74 | 1010.8 |
| 20260509202553 | 77 | 169 | 1.7 | 6.1 | 0.00 | 0.00 | 0.00 | 73 | 1010.9 |
| 20260509202052 | 77 | 90 | 0.9 | 7.0 | 0.00 | 0.00 | 0.00 | 71 | 1010.9 |
| 20260509201553 | 77 | 166 | 2.6 | 7.0 | 0.00 | 0.00 | 0.00 | 71 | 1011.1 |
| 20260509201052 | 77 | 31 | 1.7 | 5.2 | 0.00 | 0.00 | 0.00 | 72 | 1011.1 |
| 20260509200551 | 77 | 101 | 1.7 | 5.2 | 0.00 | 0.00 | 0.00 | 70 | 1011.0 |
| 20260509200056 | 77 | 75 | 0.9 | 3.5 | 0.00 | 0.00 | 0.00 | 73 | 1010.9 |
| 20260509195551 | 77 | 98 | 0.9 | 3.5 | 0.00 | 0.00 | 0.00 | 71 | 1011.1 |
| 20260509195051 | 77 | 69 | 0.9 | 3.5 | 0.00 | 0.00 | 0.00 | 73 | 1011.1 |
| 20260509194600 | 77 | 140 | 0.9 | 5.2 | 0.00 | 0.00 | 0.00 | 71 | 1011.1 |
| 20260509194052 | 77 | 276 | 1.7 | 7.0 | 0.00 | 0.00 | 0.00 | 72 | 1011.1 |
| 20260509193550 | 77 | 92 | 0.9 | 7.0 | 0.00 | 0.00 | 0.00 | 72 | 1011.1 |
| 20260509193058 | 77 | 65 | 1.7 | 6.1 | 0.00 | 0.00 | 0.00 | 73 | 1011.1 |
| 20260509192550 | 77 | 69 | 1.7 | 6.1 | 0.00 | 0.00 | 0.00 | 74 | 1011.1 |
| 20260509192052 | 77 | 160 | 1.7 | 6.1 | 0.00 | 0.00 | 0.00 | 74 | 1011.2 |
| 20260509191550 | 77 | 130 | 1.7 | 10.4 | 0.00 | 0.00 | 0.00 | 74 | 1011.1 |
| 20260509191051 | 77 | 90 | 3.5 | 10.4 | 0.00 | 0.00 | 0.00 | 74 | 1011.1 |
| 20260509190552 | 77 | 76 | 1.7 | 6.1 | 0.00 | 0.00 | 0.00 | 72 | 1011.0 |
| 20260509190057 | 77 | 104 | 0.9 | 6.1 | 0.00 | 0.00 | 0.00 | 75 | 1011.1 |
| 20260509185553 | 77 | 96 | 2.6 | 6.1 | 0.00 | 0.00 | 0.00 | 74 | 1011.2 |
| 20260509185052 | 77 | 63 | 1.7 | 3.5 | 0.00 | 0.00 | 0.00 | 75 | 1011.2 |
| 20260509184553 | 77 | 67 | 1.7 | 6.1 | 0.00 | 0.00 | 0.00 | 73 | 1011.1 |
| 20260509184052 | 77 | 95 | 1.7 | 6.1 | 0.00 | 0.00 | 0.00 | 74 | 1011.2 |
| 20260509183553 | 77 | 31 | 2.6 | 5.2 | 0.00 | 0.00 | 0.00 | 73 | 1011.2 |
| 20260509183055 | 77 | 80 | 1.7 | 7.0 | 0.00 | 0.00 | 0.00 | 72 | 1011.4 |
| 20260509182553 | 77 | 76 | 2.6 | 7.0 | 0.00 | 0.00 | 0.00 | 71 | 1011.4 |
| 20260509182052 | 77 | 5 | 3.5 | 8.7 | 0.00 | 0.00 | 0.00 | 71 | 1011.3 |
| 20260509181606 | 77 | 88 | 3.5 | 8.7 | 0.00 | 0.00 | 0.00 | 72 | 1011.4 |
| 20260509181053 | 77 | 46 | 2.6 | 7.8 | 0.00 | 0.00 | 0.00 | 72 | 1011.6 |
| 20260509180553 | 77 | 50 | 3.5 | 6.1 | 0.00 | 0.00 | 0.00 | 75 | 1011.6 |
| 20260509180053 | 77 | 126 | 2.6 | 6.1 | 0.00 | 0.00 | 0.00 | 76 | 1011.7 |
| 20260509175550 | 77 | 104 | 2.6 | 7.0 | 0.00 | 0.00 | 0.00 | 75 | 1012.0 |
| 20260509175052 | 76 | 103 | 3.5 | 7.0 | 0.00 | 0.00 | 0.00 | 76 | 1012.0 |
| 20260509174555 | 76 | 91 | 1.7 | 6.1 | 0.00 | 0.00 | 0.00 | 76 | 1011.9 |
| 20260509174052 | 76 | 0 | 1.7 | 5.2 | 0.00 | 0.00 | 0.00 | 78 | 1011.9 |
| 20260509173553 | 76 | 5 | 0.9 | 7.8 | 0.00 | 0.00 | 0.00 | 76 | 1012.0 |
| 20260509173106 | 76 | 0 | 2.6 | 8.7 | 0.00 | 0.00 | 0.00 | 77 | 1011.9 |
| 20260509172555 | 76 | 76 | 3.5 | 8.7 | 0.00 | 0.00 | 0.00 | 78 | 1011.9 |
| 20260509172053 | 76 | 53 | 3.5 | 7.0 | 0.00 | 0.00 | 0.00 | 77 | 1012.0 |
| 20260509171606 | 76 | 48 | 1.7 | 6.1 | 0.00 | 0.00 | 0.00 | 78 | 1012.1 |
| 20260509171052 | 76 | 50 | 3.5 | 6.1 | 0.00 | 0.00 | 0.00 | 78 | 1012.1 |
| 20260509170552 | 76 | 48 | 2.6 | 5.2 | 0.00 | 0.00 | 0.00 | 81 | 1012.2 |
| 20260509170055 | 75 | 62 | 2.6 | 5.2 | 0.00 | 0.00 | 0.00 | 80 | 1012.3 |
| 20260509165553 | 75 | 85 | 1.7 | 5.2 | 0.00 | 0.00 | 0.00 | 80 | 1012.4 |
| 20260509165052 | 75 | 22 | 1.7 | 6.1 | 0.00 | 0.00 | 0.00 | 79 | 1012.3 |
| 20260509164559 | 75 | 69 | 2.6 | 6.1 | 0.00 | 0.00 | 0.00 | 80 | 1012.3 |
| 20260509164052 | 75 | 351 | 2.6 | 6.1 | 0.00 | 0.00 | 0.00 | 81 | 1012.3 |
| 20260509163550 | 75 | 84 | 0.0 | 5.2 | 0.00 | 0.00 | 0.00 | 82 | 1012.3 |
| 20260509163102 | 75 | 0 | 0.0 | 5.2 | 0.00 | 0.00 | 0.00 | 83 | 1012.3 |
| 20260509162553 | 75 | 63 | 1.7 | 4.3 | 0.00 | 0.00 | 0.00 | 82 | 1012.2 |
| 20260509162052 | 74 | 5 | 1.7 | 4.3 | 0.00 | 0.00 | 0.00 | 83 | 1012.2 |
| 20260509161557 | 74 | 53 | 1.7 | 4.3 | 0.00 | 0.00 | 0.00 | 83 | 1012.2 |
| 20260509161052 | 74 | 0 | 0.9 | 5.2 | 0.00 | 0.00 | 0.00 | 83 | 1012.2 |
| 20260509160552 | 74 | 0 | 1.7 | 5.2 | 0.00 | 0.00 | 0.00 | 86 | 1012.3 |
| 20260509160105 | 74 | 66 | 0.0 | 3.5 | 0.00 | 0.00 | 0.00 | 85 | 1012.4 |
| 20260509155551 | 74 | 179 | 0.0 | 5.2 | 0.00 | 0.00 | 0.00 | 87 | 1012.3 |
| 20260509155054 | 73 | 107 | 0.9 | 6.1 | 0.00 | 0.00 | 0.00 | 85 | 1012.3 |
| 20260509154556 | 73 | 74 | 1.7 | 6.1 | 0.00 | 0.00 | 0.00 | 84 | 1012.3 |
| 20260509154054 | 73 | 77 | 1.7 | 6.1 | 0.00 | 0.00 | 0.00 | 85 | 1012.3 |
| 20260509153552 | 74 | 0 | 0.0 | 3.5 | 0.00 | 0.00 | 0.00 | 85 | 1012.2 |
| 20260509153054 | 73 | 78 | 0.9 | 2.6 | 0.00 | 0.00 | 0.00 | 86 | 1012.2 |
| 20260509152549 | 72 | 0 | 0.0 | 2.6 | 0.00 | 0.00 | 0.00 | 86 | 1012.2 |
| 20260509152051 | 72 | 71 | 0.0 | 2.6 | 0.00 | 0.00 | 0.00 | 88 | 1012.2 |
| 20260509151558 | 72 | 68 | 0.0 | 2.6 | 0.00 | 0.00 | 0.00 | 87 | 1012.1 |
| 20260509151053 | 71 | 0 | 0.0 | 2.6 | 0.00 | 0.00 | 0.00 | 87 | 1012.1 |
| 20260509150551 | 72 | 0 | 0.0 | 3.5 | 0.00 | 0.00 | 0.00 | 87 | 1012.0 |
| 20260509150054 | 72 | 0 | 0.9 | 3.5 | 0.00 | 0.00 | 0.00 | 87 | 1011.9 |
| 20260509145552 | 72 | 345 | 1.7 | 3.5 | 0.00 | 0.00 | 0.00 | 89 | 1011.7 |
| 20260509145051 | 71 | 0 | 0.0 | 3.5 | 0.00 | 0.00 | 0.00 | 89 | 1011.8 |
| 20260509144553 | 72 | 263 | 0.0 | 3.5 | 0.00 | 0.00 | 0.00 | 90 | 1011.8 |
| 20260509144057 | 71 | 0 | 0.9 | 3.5 | 0.00 | 0.00 | 0.00 | 89 | 1011.6 |
| 20260509143553 | 71 | 342 | 0.0 | 2.6 | 0.00 | 0.00 | 0.00 | 89 | 1011.7 |
| 20260509143057 | 71 | 0 | 0.0 | 1.7 | 0.00 | 0.00 | 0.00 | 90 | 1011.9 |
| 20260509142551 | 70 | 0 | 0.0 | 0.9 | 0.00 | 0.00 | 0.00 | 90 | 1011.9 |
| 20260509142051 | 70 | 0 | 0.0 | 0.9 | 0.00 | 0.00 | 0.00 | 91 | 1011.7 |
| 20260509141552 | 70 | 0 | 0.0 | 2.6 | 0.00 | 0.00 | 0.00 | 90 | 1011.8 |
| 20260509141052 | 70 | 0 | 0.0 | 2.6 | 0.00 | 0.00 | 0.00 | 90 | 1011.9 |
| 20260509140553 | 70 | 265 | 0.0 | 2.6 | 0.00 | 0.00 | 0.00 | 91 | 1011.7 |
| 20260509140114 | 69 | 0 | 0.0 | 2.6 | 0.00 | 0.00 | 0.00 | 92 | 1011.7 |
| 20260509135554 | 69 | 205 | 0.0 | 2.6 | 0.00 | 0.00 | 0.00 | 92 | 1011.7 |
| 20260509135053 | 69 | 215 | 0.9 | 2.6 | 0.00 | 0.00 | 0.00 | 91 | 1011.7 |
| 20260509134557 | 68 | 187 | 0.0 | 1.7 | 0.00 | 0.00 | 0.00 | 92 | 1011.6 |
| 20260509134051 | 68 | 229 | 0.0 | 1.7 | 0.00 | 0.00 | 0.00 | 92 | 1011.7 |
| 20260509133551 | 68 | 0 | 0.0 | 0.9 | 0.00 | 0.00 | 0.00 | 92 | 1011.5 |
| 20260509133104 | 68 | 0 | 0.0 | 1.7 | 0.00 | 0.00 | 0.00 | 92 | 1011.5 |
| 20260509132553 | 68 | 0 | 0.0 | 1.7 | 0.00 | 0.00 | 0.00 | 92 | 1011.5 |
| 20260509132055 | 67 | 0 | 0.0 | 1.7 | 0.00 | 0.00 | 0.00 | 92 | 1011.8 |
| 20260509131556 | 67 | 229 | 0.9 | 1.7 | 0.00 | 0.00 | 0.00 | 92 | 1011.8 |
| 20260509131055 | 67 | 0 | 0.0 | 1.7 | 0.00 | 0.00 | 0.00 | 92 | 1011.7 |
| 20260509130551 | 67 | 0 | 0.0 | 2.6 | 0.00 | 0.00 | 0.00 | 93 | 1011.5 |
| 20260509130101 | 67 | 355 | 0.9 | 2.6 | 0.00 | 0.00 | 0.00 | 93 | 1011.4 |
| 20260509125553 | 67 | 350 | 0.0 | 2.6 | 0.00 | 0.00 | 0.00 | 93 | 1011.3 |
| 20260509125053 | 66 | 350 | 0.0 | 2.6 | 0.00 | 0.00 | 0.00 | 93 | 1011.2 |
| 20260509124600 | 66 | 352 | 0.0 | 1.7 | 0.00 | 0.00 | 0.00 | 93 | 1011.3 |
| 20260509124053 | 66 | 0 | 0.0 | 0.0 | 0.00 | 0.00 | 0.00 | 93 | 1011.3 |
| 20260509123556 | 66 | 0 | 0.0 | 0.0 | 0.00 | 0.00 | 0.00 | 94 | 1011.2 |
| 20260509123056 | 65 | 0 | 0.0 | 0.0 | 0.00 | 0.00 | 0.00 | 93 | 1011.4 |
| 20260509122551 | 65 | 0 | 0.0 | 0.0 | 0.00 | 0.00 | 0.00 | 93 | 1011.3 |
| 20260509122051 | 64 | 0 | 0.0 | 0.9 | 0.00 | 0.00 | 0.00 | 93 | 1011.2 |
| 20260509121554 | 64 | 0 | 0.0 | 0.9 | 0.00 | 0.00 | 0.00 | 93 | 1011.0 |
| 20260509121049 | 64 | 0 | 0.0 | 2.6 | 0.00 | 0.00 | 0.00 | 93 | 1011.0 |
| 20260509120554 | 64 | 0 | 0.0 | 3.5 | 0.00 | 0.00 | 0.00 | 93 | 1010.9 |
| 20260509120053 | 64 | 22 | 0.9 | 3.5 | 0.00 | 0.00 | 0.00 | 93 | 1010.4 |
| 20260509115552 | 64 | 355 | 0.9 | 2.6 | 0.00 | 0.00 | 0.00 | 93 | 1010.5 |
| 20260509115050 | 64 | 352 | 0.9 | 2.6 | 0.00 | 0.00 | 0.00 | 93 | 1010.5 |
| 20260509114600 | 64 | 0 | 0.0 | 0.0 | 0.00 | 0.00 | 0.00 | 93 | 1010.4 |
| 20260509114052 | 64 | 0 | 0.0 | 0.0 | 0.00 | 0.00 | 0.00 | 93 | 1010.7 |
| 20260509113552 | 64 | 0 | 0.0 | 0.0 | 0.00 | 0.00 | 0.00 | 93 | 1010.7 |
| 20260509113052 | 64 | 0 | 0.0 | 0.0 | 0.00 | 0.00 | 0.00 | 93 | 1010.6 |
| 20260509112552 | 64 | 0 | 0.0 | 0.0 | 0.00 | 0.00 | 0.00 | 93 | 1010.6 |
| 20260509112050 | 64 | 0 | 0.0 | 0.0 | 0.00 | 0.00 | 0.00 | 93 | 1010.5 |
| 20260509111552 | 64 | 0 | 0.0 | 0.0 | 0.00 | 0.00 | 0.00 | 93 | 1010.5 |
| 20260509111050 | 64 | 0 | 0.0 | 0.0 | 0.00 | 0.00 | 0.00 | 93 | 1010.4 |
| 20260509110550 | 64 | 0 | 0.0 | 0.0 | 0.00 | 0.00 | 0.00 | 93 | 1010.4 |
| 20260509110057 | 64 | 0 | 0.0 | 0.0 | 0.00 | 0.00 | 0.00 | 93 | 1010.6 |
| 20260509105552 | 64 | 0 | 0.0 | 0.0 | 0.00 | 0.00 | 0.00 | 93 | 1010.7 |
| 20260509105052 | 64 | 0 | 0.0 | 0.0 | 0.00 | 0.00 | 0.00 | 93 | 1010.6 |